FIN79 EFHK-RJGG

Flight info

Callsign FIN79
Flight time N/A
Altitude 34000
Route TEVRU Y75 USUPO DCT BARUX DCT 80N021E/N0503F360 82N020E/M085F360 8930N06000W/N0498F360 DCT DEKMO/N0494F370 DCT 80N165W DCT JUJXI/N0498F380 DCT MARCC R338 MORLY/N0498F400 R338 NATES R220 NOGAL/N0496F410 R220 NANAC/N0493F400 R220 IXE Y88 SUGAL Y881 SLIDE
Aircraft A359/H-SDE2E3GHIJ3J4J5LM1ORWXY/LB1D1

Departure

Time 2026-04-23 18:52
Airport Helsinki Vantaa Airport (EFHK)

Arrival

Time N/A
Airport Chubu Centrair International Airport (RJGG)
Time Latitude Longitude Altitude Speed Heading
2026-04-23 18:17 60.31368 24.95388 173 ft 0 kts 137°
2026-04-23 18:40 60.31379 24.95369 173 ft 2 kts 140°
2026-04-23 18:40 60.31387 24.95355 173 ft 2 kts 142°
2026-04-23 18:40 60.31402 24.95334 173 ft 2 kts 149°
2026-04-23 18:41 60.31417 24.95320 173 ft 2 kts 168°
2026-04-23 18:41 60.31433 24.95323 173 ft 2 kts 210°
2026-04-23 18:41 60.31447 24.95340 173 ft 2 kts 225°
2026-04-23 18:41 60.31458 24.95365 173 ft 2 kts 228°
2026-04-23 18:42 60.31463 24.95375 173 ft 1 kts 226°
2026-04-23 18:42 60.31463 24.95376 173 ft 0 kts 226°
2026-04-23 18:44 60.31463 24.95375 173 ft 1 kts 226°
2026-04-23 18:45 60.31435 24.95315 173 ft 8 kts 227°
2026-04-23 18:45 60.31396 24.95232 173 ft 8 kts 230°
2026-04-23 18:45 60.31381 24.95131 173 ft 7 kts 282°
2026-04-23 18:45 60.31414 24.95048 173 ft 8 kts 312°
2026-04-23 18:46 60.31442 24.94951 174 ft 8 kts 284°
2026-04-23 18:46 60.31417 24.94835 172 ft 12 kts 230°
2026-04-23 18:46 60.31355 24.94696 168 ft 15 kts 226°
2026-04-23 18:46 60.31280 24.94535 165 ft 17 kts 227°
2026-04-23 18:47 60.31201 24.94362 165 ft 16 kts 227°
2026-04-23 18:47 60.31126 24.94193 163 ft 16 kts 227°
2026-04-23 18:47 60.31057 24.94041 164 ft 13 kts 227°
2026-04-23 18:47 60.31000 24.93915 165 ft 12 kts 227°
2026-04-23 18:48 60.30947 24.93797 166 ft 11 kts 227°
2026-04-23 18:48 60.30893 24.93677 165 ft 12 kts 227°
2026-04-23 18:48 60.30838 24.93552 164 ft 12 kts 233°
2026-04-23 18:48 60.30832 24.93416 163 ft 8 kts 304°
2026-04-23 18:49 60.30874 24.93368 165 ft 5 kts 337°
2026-04-23 18:49 60.30902 24.93346 166 ft 3 kts 340°
2026-04-23 18:49 60.30922 24.93332 167 ft 2 kts 341°
2026-04-23 18:49 60.30942 24.93322 168 ft 4 kts 347°
2026-04-23 18:50 60.30966 24.93325 168 ft 6 kts
2026-04-23 18:50 60.31029 24.93422 166 ft 0 kts 48°
2026-04-23 18:51 60.31046 24.93459 166 ft 17 kts 47°
2026-04-23 18:51 60.31289 24.93987 166 ft 86 kts 47°
2026-04-23 18:51 60.31833 24.95161 180 ft 145 kts 47°
2026-04-23 18:52 60.32622 24.96913 374 ft 180 kts 48°
2026-04-23 18:52 60.33424 24.98808 1211 ft 176 kts 48°
2026-04-23 18:52 60.34229 25.00741 1810 ft 182 kts 46°
2026-04-23 18:52 60.35079 25.02703 2162 ft 192 kts 45°
2026-04-23 18:53 60.36047 25.04744 2440 ft 206 kts 42°
2026-04-23 18:53 60.37090 25.06910 2647 ft 226 kts 43°
2026-04-23 18:53 60.38211 25.09309 2981 ft 241 kts 44°
2026-04-23 18:53 60.39444 25.11656 3506 ft 245 kts 32°
2026-04-23 18:54 60.41022 25.12854 4103 ft 243 kts
2026-04-23 18:54 60.42706 25.12996 4790 ft 244 kts 359°
2026-04-23 18:54 60.44391 25.13009 5401 ft 247 kts 359°
2026-04-23 18:54 60.46120 25.13039 6006 ft 250 kts 359°
2026-04-23 18:55 60.47879 25.13085 6627 ft 253 kts 360°
2026-04-23 18:55 60.49646 25.13098 7305 ft 252 kts 356°
2026-04-23 18:55 60.51342 25.12419 7990 ft 250 kts 339°
2026-04-23 18:55 60.52937 25.10992 8680 ft 250 kts 335°
2026-04-23 18:56 60.53981 25.09966 9129 ft 251 kts 335°
2026-04-23 18:56 60.56060 25.07921 10010 ft 251 kts 336°
2026-04-23 18:56 60.57673 25.06348 10349 ft 263 kts 336°
2026-04-23 18:56 60.59368 25.04703 10618 ft 276 kts 336°
2026-04-23 18:57 60.61150 25.02974 10888 ft 289 kts 336°
2026-04-23 18:57 60.62988 25.01190 11147 ft 301 kts 336°
2026-04-23 18:57 60.64937 24.99295 11411 ft 313 kts 336°
2026-04-23 18:57 60.66939 24.97346 11675 ft 324 kts 336°
2026-04-23 18:58 60.68989 24.95349 11912 ft 334 kts 336°
2026-04-23 18:58 60.71127 24.93260 12203 ft 342 kts 336°
2026-04-23 18:58 60.73260 24.91174 12670 ft 345 kts 336°
2026-04-23 18:58 60.75440 24.89038 13156 ft 346 kts 336°
2026-04-23 18:59 60.77631 24.86889 13640 ft 348 kts 336°
2026-04-23 18:59 60.79829 24.84774 14065 ft 349 kts 338°
2026-04-23 18:59 60.82130 24.83293 14488 ft 350 kts 349°
2026-04-23 18:59 60.84564 24.82991 14931 ft 351 kts 359°
2026-04-23 19:00 60.87020 24.83293 15372 ft 353 kts
2026-04-23 19:00 60.89460 24.83849 15790 ft 355 kts
2026-04-23 19:00 60.91893 24.84510 16205 ft 357 kts
2026-04-23 19:00 60.94363 24.85201 16641 ft 358 kts
2026-04-23 19:01 60.96848 24.85876 17083 ft 359 kts
2026-04-23 19:01 60.99308 24.86513 17491 ft 360 kts
2026-04-23 19:01 61.01822 24.87137 17889 ft 362 kts
2026-04-23 19:01 61.04298 24.87734 18284 ft 363 kts
2026-04-23 19:02 61.05973 24.88133 18527 ft 364 kts
2026-04-23 19:02 61.09338 24.88932 19022 ft 365 kts
2026-04-23 19:02 61.11867 24.89534 19408 ft 365 kts
2026-04-23 19:02 61.14407 24.90141 19772 ft 366 kts
2026-04-23 19:03 61.16923 24.90743 20150 ft 367 kts
2026-04-23 19:03 61.19475 24.91356 20530 ft 368 kts
2026-04-23 19:03 61.22005 24.91966 20896 ft 369 kts
2026-04-23 19:03 61.24568 24.92585 21291 ft 369 kts
2026-04-23 19:04 61.27124 24.93203 21665 ft 370 kts
2026-04-23 19:04 61.29669 24.93819 22038 ft 371 kts
2026-04-23 19:04 61.32236 24.94443 22428 ft 371 kts
2026-04-23 19:04 61.34814 24.95068 22776 ft 373 kts
2026-04-23 19:05 61.37396 24.95695 23125 ft 374 kts
2026-04-23 19:05 61.39989 24.96327 23484 ft 375 kts
2026-04-23 19:05 61.42583 24.96961 23778 ft 376 kts
2026-04-23 19:05 61.45152 24.97589 24065 ft 377 kts
2026-04-23 19:06 61.47772 24.98231 24373 ft 378 kts
2026-04-23 19:06 61.50391 24.98874 24689 ft 378 kts
2026-04-23 19:06 61.53012 24.99519 24989 ft 379 kts
2026-04-23 19:06 61.55622 25.00162 25275 ft 380 kts
2026-04-23 19:07 61.58235 25.00805 25575 ft 381 kts
2026-04-23 19:07 61.60880 25.01324 25881 ft 380 kts 359°
2026-04-23 19:07 61.63534 25.01431 26203 ft 380 kts 358°
2026-04-23 19:07 61.66146 25.01440 26518 ft 381 kts 357°
2026-04-23 19:08 61.68809 25.01397 26829 ft 382 kts 356°
2026-04-23 19:08 61.71480 25.01326 27126 ft 383 kts 356°
2026-04-23 19:08 61.74123 25.01244 27418 ft 384 kts 356°
2026-04-23 19:08 61.76814 25.01160 27704 ft 385 kts 356°
2026-04-23 19:09 61.79477 25.01080 27985 ft 386 kts 356°
2026-04-23 19:09 61.82173 25.01002 28254 ft 387 kts 356°
2026-04-23 19:09 61.84877 25.00926 28535 ft 388 kts 356°
2026-04-23 19:09 61.87556 25.00854 28835 ft 388 kts 356°
2026-04-23 19:10 61.90264 25.00783 29257 ft 385 kts 356°
2026-04-23 19:10 61.92918 25.00715 29685 ft 383 kts 356°
2026-04-23 19:10 61.95583 25.00646 30053 ft 381 kts 356°
2026-04-23 19:10 61.98242 25.00574 30311 ft 381 kts 356°
2026-04-23 19:11 62.00873 25.00502 30509 ft 381 kts 356°
2026-04-23 19:11 62.03546 25.00429 30759 ft 381 kts 356°
2026-04-23 19:11 62.06210 25.00356 31009 ft 381 kts 356°
2026-04-23 19:11 62.08842 25.00284 31219 ft 381 kts 356°
2026-04-23 19:12 62.10632 25.00235 31385 ft 381 kts 356°
2026-04-23 19:12 62.14140 25.00140 31697 ft 381 kts 356°
2026-04-23 19:12 62.16799 25.00068 31929 ft 381 kts 356°
2026-04-23 19:12 62.19465 24.99996 32146 ft 381 kts 356°
2026-04-23 19:13 62.22088 24.99923 32365 ft 381 kts 356°
2026-04-23 19:13 62.24757 24.99850 32584 ft 381 kts 356°
2026-04-23 19:13 62.27414 24.99777 32817 ft 381 kts 356°
2026-04-23 19:13 62.30076 24.99703 33032 ft 381 kts 356°
2026-04-23 19:14 62.32702 24.99631 33240 ft 381 kts 356°
2026-04-23 19:14 62.35363 24.99557 33446 ft 381 kts 356°
2026-04-23 19:14 62.37997 24.99484 33655 ft 381 kts 356°
2026-04-23 19:14 62.40672 24.99409 33804 ft 383 kts 356°
2026-04-23 19:15 62.43329 24.99333 33818 ft 387 kts 356°
2026-04-23 19:15 62.48728 24.99182 33820 ft 388 kts 356°
2026-04-23 19:16 62.54147 24.99034 33820 ft 388 kts 356°
2026-04-23 19:16 62.59536 24.98885 33822 ft 388 kts 356°
2026-04-23 19:17 62.67655 24.98657 33822 ft 389 kts 356°
2026-04-23 19:17 62.73100 24.98503 33822 ft 389 kts 355°
2026-04-23 19:18 62.78501 24.98349 33822 ft 389 kts 355°
2026-04-23 19:18 62.83917 24.98195 33822 ft 390 kts 355°
2026-04-23 19:19 62.92056 24.97962 33820 ft 390 kts 355°
2026-04-23 19:20 63.00163 24.97728 33818 ft 390 kts 355°
2026-04-23 19:20 63.05591 24.97571 33820 ft 390 kts 355°
2026-04-23 19:21 63.13732 24.97333 33816 ft 390 kts 355°
2026-04-23 19:22 63.19154 24.97175 33817 ft 390 kts 355°
2026-04-23 19:22 63.27318 24.96935 33811 ft 391 kts 355°
2026-04-23 19:23 63.32757 24.96775 33813 ft 391 kts 355°
2026-04-23 19:24 63.40900 24.96533 33805 ft 391 kts 355°
2026-04-23 19:24 63.49083 24.96290 33810 ft 391 kts 355°
2026-04-23 19:25 63.59984 24.95963 33808 ft 392 kts 355°
2026-04-23 19:26 63.68135 24.95718 33806 ft 392 kts 355°
2026-04-23 19:27 63.81760 24.95304 33798 ft 392 kts 354°
2026-04-23 19:28 63.92679 24.94967 33792 ft 392 kts 354°
2026-04-23 19:29 64.00864 24.94713 33790 ft 392 kts 354°
2026-04-23 19:30 64.09049 24.94460 33791 ft 392 kts 354°
2026-04-23 19:31 64.17211 24.94206 33788 ft 392 kts 354°
2026-04-23 19:31 64.22654 24.94034 33785 ft 392 kts 354°
2026-04-23 19:32 64.28106 24.93861 33788 ft 392 kts 354°
2026-04-23 19:32 64.33565 24.93688 33781 ft 392 kts 354°
2026-04-23 19:33 64.39035 24.93514 33786 ft 392 kts 354°
2026-04-23 19:33 64.46299 24.93282 33780 ft 393 kts 354°
2026-04-23 19:34 64.51787 24.93106 33775 ft 393 kts 354°
2026-04-23 19:35 64.59958 24.92844 33773 ft 393 kts 354°
2026-04-23 19:35 64.65444 24.92666 33770 ft 393 kts 354°
2026-04-23 19:36 64.70926 24.92486 33764 ft 394 kts 354°
2026-04-23 19:36 64.76407 24.92306 33759 ft 395 kts 354°
2026-04-23 19:37 64.81885 24.92126 33759 ft 395 kts 354°
2026-04-23 19:37 64.87390 24.91944 33755 ft 396 kts 354°
2026-04-23 19:38 64.92898 24.91762 33754 ft 397 kts 354°
2026-04-23 19:38 64.98412 24.91579 33749 ft 397 kts 354°
2026-04-23 19:39 65.03933 24.91395 33757 ft 398 kts 354°
2026-04-23 19:39 65.09454 24.91209 33754 ft 398 kts 354°
2026-04-23 19:40 65.15012 24.91022 33757 ft 399 kts 354°
2026-04-23 19:40 65.20580 24.90833 33745 ft 399 kts 354°
2026-04-23 19:41 65.26150 24.90645 33748 ft 400 kts 354°
2026-04-23 19:41 65.31715 24.90456 33750 ft 400 kts 354°
2026-04-23 19:42 65.37284 24.90266 33747 ft 400 kts 354°
2026-04-23 19:42 65.42849 24.90075 33751 ft 401 kts 354°
2026-04-23 19:43 65.48419 24.89882 33744 ft 401 kts 354°
2026-04-23 19:43 65.53991 24.89689 33747 ft 401 kts 354°
2026-04-23 19:44 65.59559 24.89496 33745 ft 401 kts 354°
2026-04-23 19:44 65.65132 24.89302 33748 ft 401 kts 354°
2026-04-23 19:45 65.70738 24.89106 33749 ft 401 kts 354°
2026-04-23 19:45 65.76308 24.88909 33748 ft 400 kts 354°
2026-04-23 19:46 65.81868 24.88711 33748 ft 400 kts 354°
2026-04-23 19:46 65.87429 24.88511 33747 ft 400 kts 354°
2026-04-23 19:47 65.92998 24.88310 33744 ft 400 kts 354°
2026-04-23 19:47 65.98564 24.88109 33740 ft 401 kts 354°
2026-04-23 19:48 66.04175 24.87908 33743 ft 401 kts 354°
2026-04-23 19:48 66.09740 24.87708 33740 ft 402 kts 354°
2026-04-23 19:49 66.15352 24.87504 33742 ft 402 kts 354°
2026-04-23 19:49 66.20941 24.87300 33741 ft 403 kts 354°
2026-04-23 19:50 66.26543 24.87095 33747 ft 403 kts 354°
2026-04-23 19:50 66.32186 24.86887 33751 ft 405 kts 354°
2026-04-23 19:51 66.37809 24.86678 33741 ft 406 kts 354°
2026-04-23 19:51 66.43451 24.86469 33757 ft 407 kts 354°
2026-04-23 19:52 66.49102 24.86257 33759 ft 408 kts 354°
2026-04-23 19:52 66.54803 24.86043 33755 ft 408 kts 354°
2026-04-23 19:53 66.60489 24.85830 33760 ft 409 kts 354°
2026-04-23 19:53 66.66181 24.85615 33759 ft 410 kts 354°
2026-04-23 19:54 66.71903 24.85397 33762 ft 411 kts 354°
2026-04-23 19:54 66.77654 24.85176 33769 ft 412 kts 354°
2026-04-23 19:55 66.83370 24.84956 33769 ft 413 kts 354°
2026-04-23 19:55 66.89099 24.84734 33772 ft 413 kts 355°
2026-04-23 19:56 66.94859 24.84511 33774 ft 414 kts 355°
2026-04-23 19:56 67.00617 24.84288 33776 ft 415 kts 355°
2026-04-23 19:57 67.06417 24.84061 33779 ft 416 kts 355°
2026-04-23 19:57 67.12193 24.83833 33784 ft 416 kts 355°
2026-04-23 19:58 67.17970 24.83604 33788 ft 417 kts 355°
2026-04-23 19:58 67.23768 24.83373 33790 ft 417 kts 355°
2026-04-23 19:59 67.29602 24.83141 33795 ft 418 kts 355°
2026-04-23 19:59 67.35386 24.82910 33796 ft 418 kts 355°
2026-04-23 20:00 67.41194 24.82676 33789 ft 419 kts 355°
2026-04-23 20:00 67.47020 24.82439 33775 ft 419 kts 355°
2026-04-23 20:01 67.52881 24.82201 33765 ft 420 kts 355°
2026-04-23 20:01 67.58705 24.81963 33752 ft 420 kts 355°
2026-04-23 20:02 67.64551 24.81723 33746 ft 421 kts 355°
2026-04-23 20:02 67.70396 24.81483 33750 ft 421 kts 355°
2026-04-23 20:03 67.76250 24.81240 33749 ft 422 kts 355°
2026-04-23 20:03 67.82115 24.80996 33748 ft 422 kts 355°
2026-04-23 20:04 67.87985 24.80750 33769 ft 422 kts 355°
2026-04-23 20:04 67.93854 24.80503 33787 ft 422 kts 355°
2026-04-23 20:05 67.99746 24.80252 33790 ft 423 kts 355°
2026-04-23 20:05 68.05626 24.80002 33808 ft 424 kts 355°
2026-04-23 20:06 68.11521 24.79749 33798 ft 424 kts 355°
2026-04-23 20:06 68.17412 24.79496 33802 ft 425 kts 355°
2026-04-23 20:07 68.23318 24.79241 33800 ft 425 kts 355°
2026-04-23 20:07 68.29267 24.78983 33799 ft 426 kts 355°
2026-04-23 20:08 68.35178 24.78725 33797 ft 427 kts 355°
2026-04-23 20:08 68.41108 24.78465 33796 ft 427 kts 355°
2026-04-23 20:09 68.47061 24.78202 33796 ft 428 kts 355°
2026-04-23 20:09 68.53007 24.77938 33798 ft 429 kts 355°
2026-04-23 20:10 68.57973 24.77716 33798 ft 430 kts 355°
2026-04-23 20:10 68.64960 24.77404 33790 ft 431 kts 355°
2026-04-23 20:11 68.70961 24.77132 33790 ft 432 kts 355°
2026-04-23 20:11 68.76969 24.76860 33790 ft 433 kts 355°
2026-04-23 20:12 68.82989 24.76586 33787 ft 435 kts 355°
2026-04-23 20:12 68.89045 24.76310 33783 ft 436 kts 355°
2026-04-23 20:13 68.95109 24.76030 33785 ft 437 kts 355°
2026-04-23 20:13 69.01167 24.75750 33779 ft 438 kts 355°
2026-04-23 20:14 69.07262 24.75467 33778 ft 438 kts 355°
2026-04-23 20:14 69.13360 24.75182 33782 ft 439 kts 355°
2026-04-23 20:15 69.19474 24.74895 33772 ft 439 kts 355°
2026-04-23 20:15 69.25609 24.74604 33771 ft 440 kts 355°
2026-04-23 20:16 69.31719 24.74312 33770 ft 441 kts 356°
2026-04-23 20:16 69.37842 24.74019 33769 ft 442 kts 356°
2026-04-23 20:17 69.43981 24.73724 33770 ft 442 kts 356°
2026-04-23 20:17 69.50180 24.73423 33776 ft 443 kts 356°
2026-04-23 20:18 69.56348 24.73122 33762 ft 444 kts 356°
2026-04-23 20:18 69.62530 24.72819 33769 ft 445 kts 356°
2026-04-23 20:19 69.68739 24.72513 33767 ft 446 kts 356°
2026-04-23 20:19 69.74938 24.72206 33766 ft 447 kts 356°
2026-04-23 20:20 69.81148 24.71896 33771 ft 447 kts 356°
2026-04-23 20:20 69.87365 24.71585 33772 ft 448 kts 356°
2026-04-23 20:21 69.93566 24.71275 33778 ft 448 kts 356°
2026-04-23 20:21 69.99818 24.70957 33774 ft 447 kts 356°
2026-04-23 20:22 70.06009 24.70641 33777 ft 447 kts 356°
2026-04-23 20:22 70.12226 24.70324 33782 ft 448 kts 356°
2026-04-23 20:23 70.18477 24.70000 33773 ft 447 kts 356°
2026-04-23 20:23 70.24681 24.69677 33774 ft 447 kts 356°
2026-04-23 20:24 70.30886 24.69353 33768 ft 447 kts 356°
2026-04-23 20:24 70.37089 24.69027 33769 ft 447 kts 356°
2026-04-23 20:25 70.43302 24.68697 33766 ft 447 kts 356°
2026-04-23 20:25 70.49547 24.68364 33775 ft 447 kts 356°
2026-04-23 20:26 70.55730 24.68032 33768 ft 447 kts 356°
2026-04-23 20:26 70.61939 24.67698 33774 ft 447 kts 356°
2026-04-23 20:27 70.68157 24.67362 33774 ft 447 kts 356°
2026-04-23 20:27 70.74392 24.67022 33774 ft 448 kts 356°
2026-04-23 20:28 70.80590 24.66682 33771 ft 448 kts 356°
2026-04-23 20:28 70.86846 24.66336 33773 ft 448 kts 356°
2026-04-23 20:29 70.93075 24.65990 33769 ft 448 kts 356°
2026-04-23 20:29 70.99292 24.65642 33771 ft 448 kts 356°
2026-04-23 20:30 71.05510 24.65292 33771 ft 448 kts 356°
2026-04-23 20:30 71.13815 24.64818 33761 ft 449 kts 356°
2026-04-23 20:31 71.20090 24.64460 33768 ft 449 kts 356°
2026-04-23 20:31 71.27344 24.64042 33768 ft 449 kts 356°
2026-04-23 20:32 71.32563 24.63632 33761 ft 449 kts 354°
2026-04-23 20:32 71.38780 24.62206 33769 ft 449 kts 352°
2026-04-23 20:33 71.45022 24.60526 33760 ft 449 kts 353°
2026-04-23 20:33 71.51243 24.58975 33766 ft 450 kts 353°
2026-04-23 20:34 71.57470 24.57511 33758 ft 450 kts 353°
2026-04-23 20:34 71.63714 24.56060 33762 ft 451 kts 353°
2026-04-23 20:35 71.69996 24.54588 33767 ft 451 kts 353°
2026-04-23 20:35 71.76241 24.53108 33766 ft 452 kts 353°
2026-04-23 20:36 71.82511 24.51610 33764 ft 452 kts 353°
2026-04-23 20:36 71.88777 24.50104 33764 ft 453 kts 353°
2026-04-23 20:37 71.95039 24.48588 33763 ft 453 kts 353°
2026-04-23 20:37 72.01325 24.47056 33769 ft 453 kts 353°
2026-04-23 20:38 72.07647 24.45506 33768 ft 454 kts 353°
2026-04-23 20:38 72.13940 24.43951 33768 ft 455 kts 353°
2026-04-23 20:39 72.20235 24.42385 33768 ft 455 kts 353°
2026-04-23 20:39 72.26556 24.40803 33767 ft 456 kts 353°
2026-04-23 20:40 72.32891 24.39206 33768 ft 456 kts 353°
2026-04-23 20:40 72.39215 24.37601 33769 ft 457 kts 353°
2026-04-23 20:41 72.45543 24.35983 33772 ft 457 kts 353°
2026-04-23 20:41 72.51880 24.34352 33771 ft 458 kts 353°
2026-04-23 20:42 72.58235 24.32705 33765 ft 458 kts 353°
2026-04-23 20:42 72.64618 24.31038 33773 ft 459 kts 353°
2026-04-23 20:43 72.70984 24.29364 33772 ft 459 kts 353°
2026-04-23 20:43 72.77330 24.27683 33779 ft 460 kts 353°
2026-04-23 20:44 72.83731 24.25975 33765 ft 460 kts 353°
2026-04-23 20:44 72.90113 24.24260 33782 ft 460 kts 353°
2026-04-23 20:45 72.96472 24.22538 33775 ft 461 kts 353°
2026-04-23 20:45 73.02880 24.20790 33774 ft 461 kts 353°
2026-04-23 20:46 73.09276 24.19033 33777 ft 462 kts 353°
2026-04-23 20:46 73.15674 24.17263 33778 ft 462 kts 353°
2026-04-23 20:47 73.22114 24.15468 33779 ft 463 kts 353°
2026-04-23 20:47 73.28508 24.13672 33782 ft 463 kts 353°
2026-04-23 20:48 73.34923 24.11857 33786 ft 464 kts 353°
2026-04-23 20:48 73.41355 24.10023 33783 ft 464 kts 353°
2026-04-23 20:49 73.47789 24.08175 33788 ft 464 kts 353°
2026-04-23 20:49 73.54221 24.06313 33785 ft 464 kts 353°
2026-04-23 20:50 73.60654 24.04437 33789 ft 465 kts 353°
2026-04-23 20:50 73.67095 24.02544 33789 ft 465 kts 353°
2026-04-23 20:51 73.73529 24.00639 33792 ft 465 kts 353°
2026-04-23 20:51 73.79967 23.98717 33795 ft 465 kts 353°
2026-04-23 20:52 73.86461 23.96761 33788 ft 466 kts 353°
2026-04-23 20:52 73.92908 23.94806 33788 ft 466 kts 353°
2026-04-23 20:53 73.99365 23.92834 33792 ft 467 kts 353°
2026-04-23 20:53 74.05833 23.90841 33792 ft 467 kts 353°
2026-04-23 20:54 74.12296 23.88835 33797 ft 468 kts 353°
2026-04-23 20:54 74.18774 23.86809 33798 ft 468 kts 353°
2026-04-23 20:55 74.25279 23.84756 33798 ft 468 kts 353°
2026-04-23 20:55 74.31759 23.82695 33795 ft 469 kts 353°
2026-04-23 20:56 74.38261 23.80610 33802 ft 469 kts 353°
2026-04-23 20:56 74.44765 23.78508 33801 ft 470 kts 353°
2026-04-23 20:57 74.51275 23.76386 33803 ft 470 kts 353°
2026-04-23 20:57 74.57819 23.74236 33801 ft 470 kts 353°
2026-04-23 20:58 74.64324 23.72081 33807 ft 471 kts 353°
2026-04-23 20:58 74.70845 23.69902 33807 ft 471 kts 353°
2026-04-23 20:59 74.77355 23.67708 33808 ft 471 kts 353°
2026-04-23 20:59 74.83888 23.65490 33807 ft 472 kts 353°
2026-04-23 21:00 74.90455 23.63240 33805 ft 472 kts 353°
2026-04-23 21:00 74.96989 23.60981 33806 ft 473 kts 353°
2026-04-23 21:01 75.03533 23.58700 33812 ft 473 kts 353°
2026-04-23 21:01 75.10069 23.56403 33813 ft 473 kts 353°
2026-04-23 21:02 75.16626 23.54078 33811 ft 474 kts 353°
2026-04-23 21:02 75.23183 23.51733 33812 ft 474 kts 353°
2026-04-23 21:03 75.29790 23.49349 33813 ft 475 kts 353°
2026-04-23 21:03 75.36363 23.46957 33812 ft 475 kts 353°
2026-04-23 21:04 75.42929 23.44546 33813 ft 475 kts 353°
2026-04-23 21:04 75.49495 23.42113 33817 ft 475 kts 353°
2026-04-23 21:05 75.56074 23.39654 33813 ft 476 kts 353°
2026-04-23 21:05 75.62670 23.37166 33814 ft 476 kts 353°
2026-04-23 21:06 75.69245 23.34664 33815 ft 476 kts 353°
2026-04-23 21:06 75.75834 23.32134 33814 ft 476 kts 353°
2026-04-23 21:07 75.82430 23.29577 33814 ft 476 kts 353°
2026-04-23 21:07 75.89060 23.26987 33816 ft 476 kts 353°
2026-04-23 21:08 75.95641 23.24384 33822 ft 476 kts 353°
2026-04-23 21:08 76.02229 23.21758 33819 ft 476 kts 353°
2026-04-23 21:09 76.08819 23.19111 33811 ft 476 kts 353°
2026-04-23 21:09 76.15445 23.16429 33822 ft 476 kts 353°
2026-04-23 21:10 76.22024 23.13731 33816 ft 476 kts 353°
2026-04-23 21:10 76.28599 23.11010 33820 ft 476 kts 353°
2026-04-23 21:11 76.35177 23.08265 33818 ft 476 kts 353°
2026-04-23 21:11 76.41769 23.05482 33823 ft 477 kts 353°
2026-04-23 21:12 76.48398 23.02659 33822 ft 477 kts 353°
2026-04-23 21:12 76.55010 22.99815 33823 ft 478 kts 353°
2026-04-23 21:13 76.61604 22.96954 33824 ft 478 kts 353°
2026-04-23 21:13 76.68221 22.94058 33825 ft 478 kts 353°
2026-04-23 21:14 76.74862 22.91120 33824 ft 479 kts 353°
2026-04-23 21:14 76.81491 22.88157 33833 ft 479 kts 353°
2026-04-23 21:15 76.88096 22.85176 33832 ft 479 kts 353°
2026-04-23 21:15 76.94720 22.82157 33830 ft 479 kts 353°
2026-04-23 21:16 77.01334 22.79112 33833 ft 480 kts 353°
2026-04-23 21:16 77.07974 22.76024 33829 ft 480 kts 353°
2026-04-23 21:17 77.14614 22.72904 33834 ft 480 kts 353°
2026-04-23 21:17 77.21240 22.69757 33829 ft 480 kts 353°
2026-04-23 21:18 77.27913 22.66559 33832 ft 481 kts 353°
2026-04-23 21:18 77.34560 22.63339 33825 ft 481 kts 353°
2026-04-23 21:19 77.41177 22.60099 33826 ft 481 kts 353°
2026-04-23 21:19 77.47836 22.56807 33829 ft 481 kts 353°
2026-04-23 21:20 77.54477 22.53485 33829 ft 481 kts 353°
2026-04-23 21:20 77.61129 22.50124 33827 ft 480 kts 353°
2026-04-23 21:21 77.67762 22.46736 33826 ft 480 kts 353°
2026-04-23 21:21 77.74388 22.43315 33831 ft 479 kts 353°
2026-04-23 21:22 77.81001 22.39865 33828 ft 479 kts 353°
2026-04-23 21:22 77.87638 22.36366 33833 ft 479 kts 353°
2026-04-23 21:23 77.94256 22.32838 33830 ft 479 kts 353°
2026-04-23 21:23 78.00904 22.29250 33834 ft 479 kts 353°
2026-04-23 21:24 78.07517 22.25650 33834 ft 479 kts 353°
2026-04-23 21:24 78.14151 22.21996 33835 ft 479 kts 353°
2026-04-23 21:25 78.20765 22.18314 33837 ft 479 kts 352°
2026-04-23 21:25 78.27376 22.14589 33836 ft 479 kts 352°
2026-04-23 21:26 78.34006 22.10808 33828 ft 479 kts 352°
2026-04-23 21:26 78.40611 22.07003 33832 ft 479 kts 352°
2026-04-23 21:27 78.47232 22.03148 33832 ft 479 kts 352°
2026-04-23 21:27 78.53810 21.99267 33832 ft 479 kts 352°
2026-04-23 21:28 78.60446 21.95314 33828 ft 479 kts 352°
2026-04-23 21:28 78.67061 21.91332 33828 ft 479 kts 352°
2026-04-23 21:29 78.73677 21.87295 33830 ft 479 kts 352°
2026-04-23 21:29 78.80276 21.83216 33830 ft 479 kts 352°
2026-04-23 21:30 78.86885 21.79088 33827 ft 480 kts 352°
2026-04-23 21:30 78.93502 21.74908 33829 ft 480 kts 352°
2026-04-23 21:31 79.00162 21.70650 33830 ft 480 kts 352°
2026-04-23 21:31 79.06766 21.66377 33825 ft 480 kts 352°
2026-04-23 21:32 79.13390 21.62033 33823 ft 481 kts 352°
2026-04-23 21:32 79.20051 21.57616 33808 ft 481 kts 352°
2026-04-23 21:33 79.26691 21.53161 33813 ft 481 kts 352°
2026-04-23 21:33 79.33314 21.48664 33821 ft 482 kts 352°
2026-04-23 21:34 79.39946 21.44100 33836 ft 482 kts 352°
2026-04-23 21:34 79.46622 21.39447 33824 ft 482 kts 352°
2026-04-23 21:35 79.53267 21.34759 33824 ft 483 kts 352°
2026-04-23 21:35 79.59915 21.30010 33826 ft 484 kts 352°
2026-04-23 21:36 79.68820 21.23550 33828 ft 486 kts 352°
2026-04-23 21:37 79.75512 21.18623 33830 ft 485 kts 352°
2026-04-23 21:37 79.82204 21.13631 33832 ft 485 kts 352°
2026-04-23 21:38 79.88892 21.08577 33835 ft 485 kts 352°
2026-04-23 21:38 79.95551 21.03478 34017 ft 483 kts 352°
2026-04-23 21:38 79.98885 21.00899 34311 ft 480 kts 352°
2026-04-23 21:39 80.02210 20.98427 34552 ft 479 kts 353°
2026-04-23 21:39 80.05502 20.96736 34742 ft 479 kts 355°
2026-04-23 21:39 80.08850 20.95524 34909 ft 480 kts 356°
2026-04-23 21:39 80.12151 20.94480 35080 ft 479 kts 356°
2026-04-23 21:40 80.15495 20.93393 35233 ft 480 kts 356°
2026-04-23 21:40 80.18810 20.92219 35396 ft 480 kts 355°
2026-04-23 21:40 80.22156 20.90937 35566 ft 480 kts 355°
2026-04-23 21:40 80.25466 20.89595 35704 ft 480 kts 355°
2026-04-23 21:41 80.28825 20.88183 35799 ft 482 kts 355°
2026-04-23 21:41 80.35534 20.85291 35828 ft 487 kts 355°
2026-04-23 21:42 80.42297 20.82340 35817 ft 487 kts 355°
2026-04-23 21:42 80.49054 20.79360 35818 ft 487 kts 355°
2026-04-23 21:43 80.55818 20.76342 35816 ft 487 kts 355°
2026-04-23 21:43 80.62566 20.73291 35825 ft 488 kts 355°
2026-04-23 21:44 80.69317 20.70196 35819 ft 488 kts 355°
2026-04-23 21:44 80.76089 20.67041 35823 ft 488 kts 355°
2026-04-23 21:45 80.82861 20.63853 35825 ft 488 kts 355°
2026-04-23 21:45 80.89632 20.60615 35831 ft 488 kts 355°
2026-04-23 21:46 80.96443 20.57302 35833 ft 489 kts 355°
2026-04-23 21:46 81.03212 20.53951 35837 ft 489 kts 355°
2026-04-23 21:47 81.09950 20.50575 35835 ft 489 kts 355°
2026-04-23 21:47 81.16726 20.47136 35846 ft 489 kts 355°
2026-04-23 21:48 81.23540 20.43614 35850 ft 489 kts 355°
2026-04-23 21:48 81.30304 20.40064 35856 ft 490 kts 355°
2026-04-23 21:49 81.37099 20.36443 35856 ft 489 kts 355°
2026-04-23 21:49 81.43881 20.32776 35863 ft 489 kts 355°
2026-04-23 21:50 81.50655 20.29056 35867 ft 489 kts 355°
2026-04-23 21:50 81.57424 20.25270 35880 ft 490 kts 355°
2026-04-23 21:51 81.64228 20.21410 35871 ft 490 kts 355°
2026-04-23 21:51 81.71016 20.17489 35875 ft 490 kts 355°
2026-04-23 21:52 81.77782 20.13523 35884 ft 490 kts 355°
2026-04-23 21:52 81.84569 20.09479 35884 ft 490 kts 354°
2026-04-23 21:53 81.91357 20.05368 35891 ft 490 kts 354°
2026-04-23 21:53 81.98184 20.01160 35896 ft 490 kts 354°
2026-04-23 21:54 82.04935 19.97294 35897 ft 490 kts 356°
2026-04-23 21:54 82.11770 19.94338 35906 ft 490 kts 356°
2026-04-23 21:55 82.18569 19.91418 35906 ft 491 kts 356°
2026-04-23 21:55 82.25415 19.88265 35909 ft 491 kts 356°
2026-04-23 21:56 82.32207 19.84990 35915 ft 491 kts 356°
2026-04-23 21:56 82.39020 19.81633 35923 ft 491 kts 356°
2026-04-23 21:57 82.45822 19.78226 35925 ft 491 kts 356°
2026-04-23 21:57 82.52620 19.74766 35924 ft 491 kts 356°
2026-04-23 21:58 82.59430 19.71236 35936 ft 491 kts 356°
2026-04-23 21:58 82.66229 19.67647 35935 ft 491 kts 355°
2026-04-23 21:59 82.73041 19.63985 35945 ft 492 kts 355°
2026-04-23 21:59 82.79898 19.60231 35944 ft 492 kts 355°
2026-04-23 22:00 82.90098 19.54509 35951 ft 492 kts 355°
2026-04-23 22:00 82.96913 19.50598 35955 ft 492 kts 355°
2026-04-23 22:01 83.03765 19.46584 35957 ft 492 kts 355°
2026-04-23 22:01 83.10595 19.42503 35960 ft 492 kts 355°
2026-04-23 22:02 83.17401 19.38357 35968 ft 492 kts 355°
2026-04-23 22:02 83.24209 19.34126 35968 ft 492 kts 355°
2026-04-23 22:03 83.31058 19.29782 35971 ft 492 kts 355°
2026-04-23 22:03 83.37870 19.25379 35974 ft 492 kts 355°
2026-04-23 22:04 83.44676 19.20881 35977 ft 492 kts 355°
2026-04-23 22:04 83.51489 19.16285 35980 ft 492 kts 355°
2026-04-23 22:05 83.58304 19.11591 35983 ft 492 kts 355°
2026-04-23 22:05 83.65128 19.06786 35988 ft 492 kts 355°
2026-04-23 22:06 83.71945 19.01886 35992 ft 492 kts 355°
2026-04-23 22:06 83.78795 18.96857 35996 ft 492 kts 355°
2026-04-23 22:07 83.85623 18.91726 35997 ft 493 kts 355°
2026-04-23 22:07 83.92448 18.86487 35999 ft 493 kts 355°
2026-04-23 22:08 83.99272 18.81129 36000 ft 493 kts 355°
2026-04-23 22:08 84.06091 18.75652 36002 ft 493 kts 355°
2026-04-23 22:09 84.12915 18.70045 36007 ft 493 kts 355°
2026-04-23 22:09 84.19763 18.64285 36010 ft 493 kts 354°
2026-04-23 22:10 84.26578 18.58410 36012 ft 493 kts 354°
2026-04-23 22:10 84.33428 18.52370 36013 ft 493 kts 354°
2026-04-23 22:11 84.40236 18.46222 36015 ft 493 kts 354°
2026-04-23 22:11 84.47069 18.39895 36017 ft 493 kts 354°
2026-04-23 22:12 84.53882 18.33426 36021 ft 493 kts 354°
2026-04-23 22:12 84.60751 18.26739 36027 ft 493 kts 354°
2026-04-23 22:13 84.67572 18.19928 36024 ft 493 kts 354°
2026-04-23 22:13 84.74388 18.12948 36028 ft 493 kts 354°
2026-04-23 22:14 84.81233 18.05755 36030 ft 493 kts 354°
2026-04-23 22:14 84.88063 17.98388 36032 ft 494 kts 354°
2026-04-23 22:15 84.94885 17.90826 36033 ft 494 kts 354°
2026-04-23 22:15 85.01720 17.83041 36033 ft 494 kts 354°
2026-04-23 22:16 85.08526 17.75073 36035 ft 494 kts 353°
2026-04-23 22:16 85.15356 17.66850 36036 ft 494 kts 353°
2026-04-23 22:17 85.22211 17.58358 36039 ft 494 kts 353°
2026-04-23 22:17 85.29028 17.49666 36037 ft 494 kts 353°
2026-04-23 22:18 85.35881 17.40674 36040 ft 494 kts 353°
2026-04-23 22:18 85.42709 17.31447 36040 ft 494 kts 353°
2026-04-23 22:19 85.49549 17.21930 36041 ft 495 kts 353°
2026-04-23 22:19 85.56376 17.12135 36042 ft 495 kts 353°
2026-04-23 22:20 85.63239 17.01972 36042 ft 494 kts 353°
2026-04-23 22:20 85.70071 16.91527 36044 ft 494 kts 353°
2026-04-23 22:21 85.76867 16.80794 36045 ft 494 kts 353°
2026-04-23 22:21 85.83732 16.69620 36046 ft 495 kts 352°
2026-04-23 22:22 85.90563 16.58121 36046 ft 495 kts 352°
2026-04-23 22:22 85.97393 16.46230 36044 ft 495 kts 352°
2026-04-23 22:23 86.04217 16.33930 36049 ft 495 kts 352°
2026-04-23 22:23 86.11042 16.21194 36051 ft 495 kts 352°
2026-04-23 22:24 86.17872 16.07990 36050 ft 495 kts 352°
2026-04-23 22:24 86.24650 15.94404 36051 ft 495 kts 352°
2026-04-23 22:25 86.31520 15.80122 36053 ft 495 kts 352°
2026-04-23 22:25 86.38300 15.65492 36054 ft 495 kts 352°
2026-04-23 22:26 86.45128 15.50195 36052 ft 496 kts 351°
2026-04-23 22:26 86.51945 15.34318 36055 ft 496 kts 351°
2026-04-23 22:27 86.58768 15.17787 36057 ft 496 kts 351°
2026-04-23 22:27 86.65573 15.00629 36058 ft 496 kts 351°
2026-04-23 22:28 86.72417 14.82643 36056 ft 496 kts 351°
2026-04-23 22:28 86.79206 14.64025 36059 ft 496 kts 351°
2026-04-23 22:29 86.86016 14.44536 36059 ft 496 kts 351°
2026-04-23 22:29 86.92868 14.24051 36061 ft 496 kts 350°
2026-04-23 22:30 86.99675 14.02757 36061 ft 497 kts 350°
2026-04-23 22:30 87.06465 13.80525 36059 ft 497 kts 350°
2026-04-23 22:31 87.13253 13.57229 36063 ft 497 kts 349°
2026-04-23 22:31 87.20111 13.32534 36065 ft 497 kts 349°
2026-04-23 22:32 87.26892 13.06869 36063 ft 497 kts 349°
2026-04-23 22:32 87.33685 12.79834 36065 ft 498 kts 349°
2026-04-23 22:33 87.40511 12.51223 36066 ft 498 kts 348°
2026-04-23 22:33 87.47306 12.22729 36066 ft 498 kts 351°
2026-04-23 22:34 87.54158 11.99933 36067 ft 498 kts 352°
2026-04-23 22:34 87.61009 11.77144 36066 ft 499 kts 351°
2026-04-23 22:35 87.64447 11.64838 36226 ft 497 kts 351°
2026-04-23 22:35 87.67827 11.52154 36495 ft 494 kts 351°
2026-04-23 22:35 87.71237 11.38822 36692 ft 494 kts 351°
2026-04-23 22:35 87.74656 11.24961 36846 ft 494 kts 351°
2026-04-23 22:36 87.78004 11.10938 36984 ft 494 kts 350°
2026-04-23 22:36 87.81423 10.96156 37118 ft 494 kts 350°
2026-04-23 22:36 87.84784 10.81182 37257 ft 494 kts 350°
2026-04-23 22:36 87.88185 10.65552 37380 ft 495 kts 350°
2026-04-23 22:37 87.91567 10.49510 37497 ft 495 kts 349°
2026-04-23 22:37 87.94963 10.32863 37637 ft 495 kts 349°
2026-04-23 22:37 87.98333 10.15792 37758 ft 495 kts 349°
2026-04-23 22:37 88.01733 9.97966 37845 ft 496 kts 349°
2026-04-23 22:38 88.05105 9.79666 37963 ft 496 kts 349°
2026-04-23 22:38 88.08507 9.60540 38061 ft 496 kts 349°
2026-04-23 22:38 88.15302 9.20192 38078 ft 501 kts 348°
2026-04-23 22:39 88.22143 8.76403 38074 ft 503 kts 348°
2026-04-23 22:39 88.28995 8.28981 38072 ft 503 kts 347°
2026-04-23 22:40 88.35815 7.77761 38075 ft 503 kts 347°
2026-04-23 22:41 88.46021 6.92418 38075 ft 503 kts 346°
2026-04-23 22:41 88.51734 6.39378 38079 ft 503 kts 346°
2026-04-23 22:42 88.58480 5.71092 38076 ft 503 kts 345°
2026-04-23 22:42 88.65243 4.95550 38082 ft 504 kts 344°
2026-04-23 22:43 88.72006 4.11733 38082 ft 504 kts 343°
2026-04-23 22:43 88.78723 3.18880 38084 ft 504 kts 342°
2026-04-23 22:44 88.85384 2.15555 38081 ft 504 kts 341°
2026-04-23 22:44 88.91989 0.99870 38083 ft 505 kts 340°
2026-04-23 22:45 88.98610 -0.32207 38106 ft 504 kts 340°
2026-04-23 22:45 89.05070 -1.80124 38081 ft 497 kts 339°
2026-04-23 22:46 89.11412 -3.47897 38088 ft 494 kts 337°
2026-04-23 22:46 89.17655 -5.40666 38088 ft 495 kts 335°
2026-04-23 22:47 89.23802 -7.64803 38087 ft 496 kts 333°
2026-04-23 22:47 89.29812 -10.27475 38091 ft 496 kts 330°
2026-04-23 22:48 89.35638 -13.37243 38095 ft 496 kts 327°
2026-04-23 22:48 89.41251 -17.07295 38093 ft 495 kts 323°
2026-04-23 22:49 89.46593 -21.53891 38094 ft 495 kts 319°
2026-04-23 22:49 89.51602 -27.01878 38093 ft 496 kts 314°
2026-04-23 22:50 89.56002 -33.53536 38115 ft 496 kts 307°
2026-04-23 22:50 89.59756 -41.42823 38120 ft 495 kts 299°
2026-04-23 22:51 89.62605 -50.66472 38114 ft 494 kts 290°
2026-04-23 22:51 89.64336 -61.03367 38103 ft 492 kts 279°
2026-04-23 22:52 89.64791 -72.03763 38100 ft 491 kts 268°
2026-04-23 22:52 89.63905 -82.88994 38090 ft 491 kts 257°
2026-04-23 22:53 89.61743 -92.90154 38064 ft 491 kts 247°
2026-04-23 22:53 89.58506 -101.56816 38079 ft 494 kts 238°
2026-04-23 22:54 89.54386 -108.89136 38099 ft 496 kts 231°
2026-04-23 22:54 89.49669 -114.87244 38109 ft 496 kts 225°
2026-04-23 22:55 89.44540 -119.74999 38112 ft 496 kts 220°
2026-04-23 22:55 89.39031 -123.81961 38112 ft 495 kts 216°
2026-04-23 22:56 89.33292 -127.20815 38110 ft 495 kts 213°
2026-04-23 22:56 89.27322 -130.08536 38112 ft 495 kts 210°
2026-04-23 22:57 89.21633 -132.37253 38114 ft 495 kts 208°
2026-04-23 22:57 89.18346 -133.53345 38119 ft 495 kts 207°
2026-04-23 22:58 89.14925 -134.63773 38112 ft 495 kts 205°
2026-04-23 22:58 89.09377 -136.24830 38123 ft 495 kts 204°
2026-04-23 22:59 89.02980 -137.84554 38124 ft 495 kts 202°
2026-04-23 22:59 88.96533 -139.24359 38120 ft 495 kts 201°
2026-04-23 23:00 88.90025 -140.47811 38122 ft 495 kts 199°
2026-04-23 23:00 88.83559 -141.64640 38128 ft 494 kts 205°
2026-04-23 23:01 88.77433 -143.08753 38130 ft 493 kts 208°
2026-04-23 23:01 88.71257 -144.46070 38125 ft 494 kts 206°
2026-04-23 23:02 88.64949 -145.65102 38126 ft 494 kts 204°
2026-04-23 23:02 88.58564 -146.70291 38134 ft 494 kts 202°
2026-04-23 23:03 88.52108 -147.66294 38138 ft 494 kts 201°
2026-04-23 23:03 88.45644 -148.54091 38132 ft 494 kts 200°
2026-04-23 23:04 88.39157 -149.34873 38140 ft 494 kts 200°
2026-04-23 23:04 88.32627 -150.09610 38143 ft 494 kts 199°
2026-04-23 23:05 88.26061 -150.78837 38136 ft 494 kts 198°
2026-04-23 23:05 88.19501 -151.42764 38139 ft 494 kts 198°